Location: Palomar Mountain Lodge
(33.3110°N, 116.8495°W)
Time: 06:55:08
(UTC-08:00)

AQUARIUS - Pass Details

Date: 13 December 2025
Orbit: 634 x 635 km, 98.0° (Epoch: 16 January)

Event Time Altitude Azimuth Distance (km) Brightness Sun altitude
Rises 17:15:30 0° 151° (SSE) 2,914 7.4 -7.4°
Reaches altitude 10° 17:17:46 10° 144° (SE) 2,010 6.6 -7.8°
Maximum altitude 17:21:54 42° 73° (ENE) 906 4.5 -8.6°
Drops below altitude 10° 17:26:03 10° 3° (N) 2,022 6.5 -9.4°
Sets 17:28:20 0° 357° (N) 2,934 7.3 -9.8°
